Location: ???????
(38.3360°N, 23.6977°E)
Time: 05:32:57
(UTC+00:00)

ISS - Pass Details

Date: 17 November 2025
Orbit: 416 x 420 km, 51.6° (Epoch: 09 December)

Event Time Altitude Azimuth Distance (km) Brightness Sun altitude
Rises 17:11:13 0° 290° (WNW) 2,364 1.1 -23.5°
Reaches altitude 10° 17:14:39 10° 327° (NNW) 1,500 -0.7 -24.1°
Enters shadow 17:15:11 11° 336° (NNW) 1,448 -0.8 -24.2°
